Simultaneous Nadir Overpasses (SNOs) Predictions

Prediction of SNOs between AQUA and NOAA-19 Satellite Orbit:

Table of predicted SNOs for the next 14.0 days since TLE Epoch: 4/5/2014
Index Date (AQUA) Time (AQUA) Lat,Lon (AQUA) SZA (AQUA ) Date (NOAA-19) Time (NOAA-19) Lat,Lon (NOAA-19) SZA (NOAA-19 ) Distance(km) Time Diff (sec)
1 04/05/2014 09:58:03 74.02, 24.53 67.93 04/05/2014 09:57:35 74.02, 24.56 67.93 1.01 28
2 04/05/2014 10:47:01 -72.58,-164.87 113.61 04/05/2014 10:48:12 -72.59,-164.92 113.60 1.85 71
3 04/07/2014 14:42:24 74.30, -47.19 67.40 04/07/2014 14:41:37 74.29, -47.11 67.39 2.92 47
4 04/07/2014 15:31:24 -72.98, 123.30 114.03 04/07/2014 15:32:16 -72.98, 123.28 114.03 1.09 52
5 04/09/2014 19:26:46 74.67,-119.15 66.97 04/09/2014 19:25:41 74.66,-119.09 66.97 2.13 65
6 04/09/2014 20:15:43 -73.19, 51.81 114.62 04/09/2014 20:16:16 -73.18, 51.87 114.64 2.44 33
7 04/12/2014 01:00:04 -73.55, -20.00 115.06 04/12/2014 01:00:19 -73.54, -19.92 115.07 2.90 15
8 04/14/2014 05:44:28 -74.10, -92.26 115.28 04/14/2014 05:44:26 -74.09, -92.26 115.28 0.26 2
9 04/16/2014 10:28:47 -74.42,-164.07 115.73 04/16/2014 10:28:28 -74.41,-164.06 115.72 0.46 19
10 04/16/2014 11:17:45 72.89, 6.86 62.65 04/16/2014 11:18:56 72.88, 6.91 62.64 1.81 71
11 04/18/2014 15:13:08 -74.87, 123.75 116.01 04/18/2014 15:12:33 -74.88, 123.68 115.99 2.43 35




NCC Satellite Simultaneous Nadir Overpasses (SNOs) Prediction Service
